Location: Poughquag
(41.6090°N, 73.6820°W)
Time: 14:44:27
(UTC-04:00)

Vanguard 3 - Pass Details

Date: 05 June 2020
Orbit: 510 x 3261 km, 33.3° (Epoch: 05 July)

Event Time Altitude Azimuth Distance (km) Brightness Sun altitude
Exits shadow 00:47:50 33° 168° (SSE) 4,447 10.3 -25.8°
Maximum altitude 00:51:37 36° 149° (SSE) 4,231 10.3 -25.8°
Drops below altitude 10° 01:05:33 10° 91° (E) 5,180 11.2 -25.7°
Sets 01:09:26 0° 83° (E) 5,852 11.7 -25.7°
